Year,Month,Day,Hour,Minute,Value (Times are PST for temperature in C)
2017,02,28,00,00,-2.50
2017,02,28,00,01,-2.50
2017,02,28,00,02,-2.50
2017,02,28,00,03,-2.50
2017,02,28,00,04,-2.50
2017,02,28,00,05,-2.50
2017,02,28,00,06,-2.50
2017,02,28,00,07,-2.50
2017,02,28,00,08,-2.50
2017,02,28,00,09,-2.50
2017,02,28,00,10,-2.50
2017,02,28,00,11,-2.50
2017,02,28,00,12,-2.50
2017,02,28,00,13,-2.50
2017,02,28,00,14,-2.50
2017,02,28,00,15,-2.50
2017,02,28,00,16,-2.50
2017,02,28,00,17,-2.50
2017,02,28,00,18,-2.50
2017,02,28,00,19,-2.50
2017,02,28,00,20,-2.50
2017,02,28,00,21,-2.50
2017,02,28,00,22,-2.50
2017,02,28,00,23,-2.50
2017,02,28,00,24,-2.50
2017,02,28,00,25,-2.50
2017,02,28,00,26,-2.50
2017,02,28,00,27,-2.50
2017,02,28,00,28,-2.50
2017,02,28,00,29,-2.50
2017,02,28,00,30,-2.50
2017,02,28,00,31,-2.50
2017,02,28,00,32,-2.50
2017,02,28,00,33,-2.50
2017,02,28,00,34,-2.50
2017,02,28,00,35,-2.50
2017,02,28,00,36,-2.50
2017,02,28,00,37,-2.50
2017,02,28,00,38,-2.50
2017,02,28,00,39,-2.50
2017,02,28,00,40,-2.50
2017,02,28,00,41,-2.50
2017,02,28,00,42,-2.50
2017,02,28,00,43,-2.60
2017,02,28,00,44,-2.60
2017,02,28,00,45,-2.60
2017,02,28,00,46,-2.60
2017,02,28,00,47,-2.60
2017,02,28,00,48,-2.60
2017,02,28,00,49,-2.60
2017,02,28,00,50,-2.60
2017,02,28,00,51,-2.60
2017,02,28,00,52,-2.70
2017,02,28,00,53,-2.70
2017,02,28,00,54,-2.70
2017,02,28,00,55,-2.70
2017,02,28,00,56,-2.60
2017,02,28,00,57,-2.60
2017,02,28,00,58,-2.60
2017,02,28,00,59,-2.60
2017,02,28,01,00,-2.60
2017,02,28,01,01,-2.60
2017,02,28,01,02,-2.60
2017,02,28,01,03,-2.60
2017,02,28,01,04,-2.60
2017,02,28,01,05,-2.70
2017,02,28,01,06,-2.70
2017,02,28,01,07,-2.70
2017,02,28,01,08,-2.70
2017,02,28,01,09,-2.70
2017,02,28,01,10,-2.70
2017,02,28,01,11,-2.70
2017,02,28,01,12,-2.70
2017,02,28,01,13,-2.70
2017,02,28,01,14,-2.70
2017,02,28,01,15,-2.80
2017,02,28,01,16,-2.80
2017,02,28,01,17,-2.80
2017,02,28,01,18,-2.70
2017,02,28,01,19,-2.70
2017,02,28,01,20,-2.70
2017,02,28,01,21,-2.70
2017,02,28,01,22,-2.70
2017,02,28,01,23,-2.70
2017,02,28,01,24,-2.70
2017,02,28,01,25,-2.70
2017,02,28,01,26,-2.70
2017,02,28,01,27,-2.70
2017,02,28,01,28,-2.70
2017,02,28,01,29,-2.70
2017,02,28,01,30,-2.70
2017,02,28,01,31,-2.70
2017,02,28,01,32,-2.70
2017,02,28,01,33,-2.70
2017,02,28,01,34,-2.70
2017,02,28,01,35,-2.70
2017,02,28,01,36,-2.70
2017,02,28,01,37,-2.70
2017,02,28,01,38,-2.70
2017,02,28,01,39,-2.70
2017,02,28,01,40,-2.70
2017,02,28,01,41,-2.70
2017,02,28,01,42,-2.70
2017,02,28,01,43,-2.70
2017,02,28,01,44,-2.70
2017,02,28,01,45,-2.70
2017,02,28,01,46,-2.70
2017,02,28,01,47,-2.70
2017,02,28,01,48,-2.60
2017,02,28,01,49,-2.60
2017,02,28,01,50,-2.60
2017,02,28,01,51,-2.60
2017,02,28,01,52,-2.60
2017,02,28,01,53,-2.60
2017,02,28,01,54,-2.60
2017,02,28,01,55,-2.50
2017,02,28,01,56,-2.50
2017,02,28,01,57,-2.50
2017,02,28,01,58,-2.50
2017,02,28,01,59,-2.50
2017,02,28,02,00,-2.50
2017,02,28,02,01,-2.50
2017,02,28,02,02,-2.50
2017,02,28,02,03,-2.40
2017,02,28,02,04,-2.40
2017,02,28,02,05,-2.40
2017,02,28,02,06,-2.40
2017,02,28,02,07,-2.40
2017,02,28,02,08,-2.30
2017,02,28,02,09,-2.30
2017,02,28,02,10,-2.30
2017,02,28,02,11,-2.30
2017,02,28,02,12,-2.30
2017,02,28,02,13,-2.30
2017,02,28,02,14,-2.20
2017,02,28,02,15,-2.20
2017,02,28,02,16,-2.20
2017,02,28,02,17,-2.20
2017,02,28,02,18,-2.20
2017,02,28,02,19,-2.20
2017,02,28,02,20,-2.20
2017,02,28,02,21,-2.20
2017,02,28,02,22,-2.20
2017,02,28,02,23,-2.20
2017,02,28,02,24,-2.20
2017,02,28,02,25,-2.10
2017,02,28,02,26,-2.10
2017,02,28,02,27,-2.10
2017,02,28,02,28,-2.10
2017,02,28,02,29,-2.20
2017,02,28,02,30,-2.10
2017,02,28,02,31,-2.10
2017,02,28,02,32,-2.10
2017,02,28,02,33,-2.10
2017,02,28,02,34,-2.10
2017,02,28,02,35,-2.10
2017,02,28,02,36,-2.10
2017,02,28,02,37,-2.10
2017,02,28,02,38,-2.10
2017,02,28,02,39,-2.10
2017,02,28,02,40,-2.10
2017,02,28,02,41,-2.10
2017,02,28,02,42,-2.10
2017,02,28,02,43,-2.10
2017,02,28,02,44,-2.10
2017,02,28,02,45,-2.10
2017,02,28,02,46,-2.10
2017,02,28,02,47,-2.10
2017,02,28,02,48,-2.10
2017,02,28,02,49,-2.10
2017,02,28,02,50,-2.10
2017,02,28,02,51,-2.10
2017,02,28,02,52,-2.10
2017,02,28,02,53,-2.10
2017,02,28,02,54,-2.10
2017,02,28,02,55,-2.10
2017,02,28,02,56,-2.10
2017,02,28,02,57,-2.10
2017,02,28,02,58,-2.10
2017,02,28,02,59,-2.10
2017,02,28,03,00,-2.10
2017,02,28,03,01,-2.10
2017,02,28,03,02,-2.10
2017,02,28,03,03,-2.10
2017,02,28,03,04,-2.00
2017,02,28,03,05,-2.10
2017,02,28,03,06,-2.10
2017,02,28,03,07,-2.10
2017,02,28,03,08,-2.10
2017,02,28,03,09,-2.10
2017,02,28,03,10,-2.10
2017,02,28,03,11,-2.10
2017,02,28,03,12,-2.10
2017,02,28,03,13,-2.10
2017,02,28,03,14,-2.20
2017,02,28,03,15,-2.20
2017,02,28,03,16,-2.20
2017,02,28,03,17,-2.20
2017,02,28,03,18,-2.20
2017,02,28,03,19,-2.20
2017,02,28,03,20,-2.20
2017,02,28,03,21,-2.20
2017,02,28,03,22,-2.20
2017,02,28,03,23,-2.20
2017,02,28,03,24,-2.20
2017,02,28,03,25,-2.20
2017,02,28,03,26,-2.20
2017,02,28,03,27,-2.20
2017,02,28,03,28,-2.20
2017,02,28,03,29,-2.20
2017,02,28,03,30,-2.20
2017,02,28,03,31,-2.20
2017,02,28,03,32,-2.20
2017,02,28,03,33,-2.20
2017,02,28,03,34,-2.20
2017,02,28,03,35,-2.20
2017,02,28,03,36,-2.10
2017,02,28,03,37,-2.10
2017,02,28,03,38,-2.10
2017,02,28,03,39,-2.10
2017,02,28,03,40,-2.10
2017,02,28,03,41,-2.10
2017,02,28,03,42,-2.10
2017,02,28,03,43,-2.10
2017,02,28,03,44,-2.10
2017,02,28,03,45,-2.10
2017,02,28,03,46,-2.10
2017,02,28,03,47,-2.10
2017,02,28,03,48,-2.10
2017,02,28,03,49,-2.10
2017,02,28,03,50,-2.00
2017,02,28,03,51,-2.10
2017,02,28,03,52,-2.00
2017,02,28,03,53,-2.00
2017,02,28,03,54,-2.00
2017,02,28,03,55,-2.00
2017,02,28,03,56,-2.00
2017,02,28,03,57,-2.00
2017,02,28,03,58,-2.00
2017,02,28,03,59,-2.00
2017,02,28,04,00,-2.00
2017,02,28,04,01,-2.00
2017,02,28,04,02,-2.00
2017,02,28,04,03,-2.00
2017,02,28,04,04,-2.00
2017,02,28,04,05,-2.00
2017,02,28,04,06,-2.00
2017,02,28,04,07,-2.00
2017,02,28,04,08,-2.00
2017,02,28,04,09,-2.00
2017,02,28,04,10,-2.00
2017,02,28,04,11,-2.00
2017,02,28,04,12,-2.00
2017,02,28,04,13,-1.90
2017,02,28,04,14,-1.90
2017,02,28,04,15,-1.90
2017,02,28,04,16,-1.90
2017,02,28,04,17,-1.90
2017,02,28,04,18,-1.90
2017,02,28,04,19,-1.90
2017,02,28,04,20,-1.90
2017,02,28,04,21,-1.90
2017,02,28,04,22,-1.90
2017,02,28,04,23,-1.90
2017,02,28,04,24,-1.90
2017,02,28,04,25,-1.90
2017,02,28,04,26,-1.90
2017,02,28,04,27,-1.90
2017,02,28,04,28,-1.90
2017,02,28,04,29,-1.90
2017,02,28,04,30,-1.90
2017,02,28,04,31,-1.90
2017,02,28,04,32,-1.90
2017,02,28,04,33,-1.90
2017,02,28,04,34,-1.90
2017,02,28,04,35,-1.90
2017,02,28,04,36,-1.90
2017,02,28,04,37,-1.90
2017,02,28,04,38,-1.90
2017,02,28,04,39,-1.90
2017,02,28,04,40,-2.00
2017,02,28,04,41,-2.00
2017,02,28,04,42,-2.00
2017,02,28,04,43,-2.00
2017,02,28,04,44,-2.00
2017,02,28,04,45,-2.00
2017,02,28,04,46,-2.00
2017,02,28,04,47,-2.00
2017,02,28,04,48,-2.00
2017,02,28,04,49,-2.00
2017,02,28,04,50,-2.00
2017,02,28,04,51,-2.00
2017,02,28,04,52,-2.00
2017,02,28,04,53,-2.00
2017,02,28,04,54,-2.00
2017,02,28,04,55,-2.00
2017,02,28,04,56,-2.00
2017,02,28,04,57,-2.10
2017,02,28,04,58,-2.10
2017,02,28,04,59,-2.10
2017,02,28,05,00,-2.10
2017,02,28,05,01,-2.10
2017,02,28,05,02,-2.10
2017,02,28,05,03,-2.10
2017,02,28,05,04,-2.10
2017,02,28,05,05,-2.10
2017,02,28,05,06,-2.20
2017,02,28,05,07,-2.20
2017,02,28,05,08,-2.20
2017,02,28,05,09,-2.20
2017,02,28,05,10,-2.20
2017,02,28,05,11,-2.20
2017,02,28,05,12,-2.20
2017,02,28,05,13,-2.20
2017,02,28,05,14,-2.20
2017,02,28,05,15,-2.20
2017,02,28,05,16,-2.20
2017,02,28,05,17,-2.20
2017,02,28,05,18,-2.20
2017,02,28,05,19,-2.20
2017,02,28,05,20,-2.20
2017,02,28,05,21,-2.20
2017,02,28,05,22,-2.20
2017,02,28,05,23,-2.20
2017,02,28,05,24,-2.20
2017,02,28,05,25,-2.20
2017,02,28,05,26,-2.30
2017,02,28,05,27,-2.30
2017,02,28,05,28,-2.30
2017,02,28,05,29,-2.30
2017,02,28,05,30,-2.30
2017,02,28,05,31,-2.30
2017,02,28,05,32,-2.30
2017,02,28,05,33,-2.30
2017,02,28,05,34,-2.30
2017,02,28,05,35,-2.30
2017,02,28,05,36,-2.30
2017,02,28,05,37,-2.30
2017,02,28,05,38,-2.30
2017,02,28,05,39,-2.40
2017,02,28,05,40,-2.40
2017,02,28,05,41,-2.40
2017,02,28,05,42,-2.40
2017,02,28,05,43,-2.40
2017,02,28,05,44,-2.40
2017,02,28,05,45,-2.40
2017,02,28,05,46,-2.50
2017,02,28,05,47,-2.50
2017,02,28,05,48,-2.50
2017,02,28,05,49,-2.50
2017,02,28,05,50,-2.50
2017,02,28,05,51,-2.50
2017,02,28,05,52,-2.50
2017,02,28,05,53,-2.50
2017,02,28,05,54,-2.50
2017,02,28,05,55,-2.40
2017,02,28,05,56,-2.40
2017,02,28,05,57,-2.40
2017,02,28,05,58,-2.40
2017,02,28,05,59,-2.40
2017,02,28,06,00,-2.40
2017,02,28,06,01,-2.40
2017,02,28,06,02,-2.40
2017,02,28,06,03,-2.40
2017,02,28,06,04,-2.40
2017,02,28,06,05,-2.40
2017,02,28,06,06,-2.50
2017,02,28,06,07,-2.50
2017,02,28,06,08,-2.50
2017,02,28,06,09,-2.50
2017,02,28,06,10,-2.50
2017,02,28,06,11,-2.60
2017,02,28,06,12,-2.60
2017,02,28,06,13,-2.60
2017,02,28,06,14,-2.60
2017,02,28,06,15,-2.60
2017,02,28,06,16,-2.60
2017,02,28,06,17,-2.60
2017,02,28,06,18,-2.60
2017,02,28,06,19,-2.60
2017,02,28,06,20,-2.60
2017,02,28,10,01,2.80
2017,02,28,10,02,2.80
2017,02,28,10,03,2.90
2017,02,28,10,04,3.00
2017,02,28,10,05,3.00
2017,02,28,10,06,3.10
2017,02,28,10,07,3.10
2017,02,28,10,08,3.20
2017,02,28,10,09,3.30
2017,02,28,10,10,3.30
2017,02,28,10,11,3.30
2017,02,28,10,12,3.30
2017,02,28,10,13,3.20
2017,02,28,10,14,3.20
2017,02,28,10,15,3.20
2017,02,28,10,16,3.20
2017,02,28,10,17,3.20
2017,02,28,10,18,3.20
2017,02,28,10,19,3.20
2017,02,28,10,20,3.20
2017,02,28,10,21,3.20
2017,02,28,10,22,3.20
2017,02,28,10,23,3.20
2017,02,28,10,24,3.30
2017,02,28,10,25,3.30
2017,02,28,10,26,3.40
2017,02,28,10,27,3.40
2017,02,28,10,28,3.50
2017,02,28,10,29,3.50
2017,02,28,10,30,3.60
2017,02,28,10,31,3.60
2017,02,28,10,32,3.60
2017,02,28,10,33,3.60
2017,02,28,10,34,3.60
2017,02,28,10,35,3.50
2017,02,28,10,36,3.40
2017,02,28,10,37,3.30
2017,02,28,10,38,3.30
2017,02,28,10,39,3.20
2017,02,28,10,40,3.10
2017,02,28,10,41,3.00
2017,02,28,10,42,3.00
2017,02,28,10,43,2.90
2017,02,28,10,44,2.80
2017,02,28,10,45,2.80
2017,02,28,10,46,2.70
2017,02,28,10,47,2.70
2017,02,28,10,48,2.70
2017,02,28,10,49,2.60
2017,02,28,10,50,2.60
2017,02,28,10,51,2.60
2017,02,28,10,52,2.60
2017,02,28,10,53,2.50
2017,02,28,10,54,2.60
2017,02,28,10,55,2.60
2017,02,28,10,56,2.60
2017,02,28,10,57,2.60
2017,02,28,10,58,2.60
2017,02,28,10,59,2.70
2017,02,28,11,00,2.70
2017,02,28,11,01,2.70
2017,02,28,11,02,2.80
2017,02,28,11,03,2.80
2017,02,28,11,04,2.90
2017,02,28,11,05,2.90
2017,02,28,11,06,3.10
2017,02,28,11,07,3.20
2017,02,28,11,08,3.20
2017,02,28,11,09,3.30
2017,02,28,11,10,3.40
2017,02,28,11,11,3.40
2017,02,28,11,12,3.40
2017,02,28,11,13,3.50
2017,02,28,11,14,3.50
2017,02,28,11,15,3.60
2017,02,28,11,16,3.60
2017,02,28,11,17,3.60
2017,02,28,11,18,3.60
2017,02,28,11,19,3.60
2017,02,28,11,20,3.60
2017,02,28,11,21,3.60
2017,02,28,11,22,3.60
2017,02,28,11,23,3.60
2017,02,28,11,24,3.60
2017,02,28,11,25,3.50
2017,02,28,11,26,3.50
2017,02,28,11,27,3.40
2017,02,28,11,28,3.40
2017,02,28,11,29,3.40
2017,02,28,11,30,3.40
2017,02,28,11,31,3.40
2017,02,28,11,32,3.30
2017,02,28,11,33,3.30
2017,02,28,11,34,3.30
2017,02,28,11,35,3.30
2017,02,28,11,36,3.20
2017,02,28,11,37,3.20
2017,02,28,11,38,3.20
2017,02,28,11,39,3.20
2017,02,28,11,40,3.10
2017,02,28,11,41,3.10
2017,02,28,11,42,3.10
2017,02,28,11,43,3.10
2017,02,28,11,44,3.10
2017,02,28,11,45,3.10
2017,02,28,11,46,3.20
2017,02,28,11,47,3.20
2017,02,28,11,48,3.30
2017,02,28,11,49,3.30
2017,02,28,11,50,3.30
2017,02,28,11,51,3.40
2017,02,28,11,52,3.50
2017,02,28,11,53,3.50
2017,02,28,11,54,3.60
2017,02,28,11,55,3.60
2017,02,28,11,56,3.60
2017,02,28,11,57,3.70
2017,02,28,11,58,3.70
2017,02,28,11,59,3.80
2017,02,28,12,00,3.90
2017,02,28,12,01,3.90
2017,02,28,12,02,4.00
2017,02,28,12,03,4.10
2017,02,28,12,04,4.20
2017,02,28,12,05,4.30
2017,02,28,12,06,4.40
2017,02,28,12,07,4.50
2017,02,28,12,08,4.60
2017,02,28,12,09,4.70
2017,02,28,12,10,4.70
2017,02,28,12,11,4.80
2017,02,28,12,12,4.80
2017,02,28,12,13,4.90
2017,02,28,12,14,4.90
2017,02,28,12,15,4.90
2017,02,28,12,16,5.00
2017,02,28,12,17,5.00
2017,02,28,12,18,5.00
2017,02,28,12,19,5.00
2017,02,28,12,20,5.00
2017,02,28,12,21,5.00
2017,02,28,12,22,5.00
2017,02,28,12,23,5.00
2017,02,28,12,24,4.90
2017,02,28,12,25,4.90
2017,02,28,12,26,4.90
2017,02,28,12,27,4.90
2017,02,28,12,28,4.90
2017,02,28,12,29,4.90
2017,02,28,12,30,4.90
2017,02,28,12,31,5.00
2017,02,28,12,32,5.00
2017,02,28,12,33,5.00
2017,02,28,12,34,5.10
2017,02,28,12,35,5.10
2017,02,28,12,36,5.10
2017,02,28,12,37,5.10
2017,02,28,12,38,5.10
2017,02,28,12,39,5.10
2017,02,28,12,40,5.10
2017,02,28,12,41,5.00
2017,02,28,12,42,5.00
2017,02,28,12,43,5.00
2017,02,28,12,44,5.00
2017,02,28,12,45,5.00
2017,02,28,12,46,5.00
2017,02,28,12,47,5.00
2017,02,28,12,48,5.00
2017,02,28,12,49,4.90
2017,02,28,12,50,4.90
2017,02,28,12,51,4.90
2017,02,28,12,52,4.90
2017,02,28,12,53,4.90
2017,02,28,12,54,4.90
2017,02,28,12,55,4.90
2017,02,28,12,56,4.90
2017,02,28,12,57,4.90
2017,02,28,12,58,4.90
2017,02,28,12,59,4.90
2017,02,28,13,00,4.90
2017,02,28,13,01,4.80
2017,02,28,13,02,4.80
2017,02,28,13,03,4.80
2017,02,28,13,04,4.80
2017,02,28,13,05,4.80
2017,02,28,13,06,4.80
2017,02,28,13,07,4.80
2017,02,28,13,08,4.80
2017,02,28,13,09,4.80
2017,02,28,13,10,4.80
2017,02,28,13,11,4.80
2017,02,28,13,12,4.80
2017,02,28,13,13,4.90
2017,02,28,13,14,4.90
2017,02,28,13,15,4.90
2017,02,28,13,16,4.90
2017,02,28,13,17,4.90
2017,02,28,13,18,4.90
2017,02,28,13,19,4.90
2017,02,28,13,20,4.90
2017,02,28,13,21,4.90
2017,02,28,13,22,5.00
2017,02,28,13,23,5.00
2017,02,28,13,24,5.00
2017,02,28,13,25,5.00
2017,02,28,13,26,5.00
2017,02,28,13,27,5.00
2017,02,28,13,28,5.00
2017,02,28,13,29,4.90
2017,02,28,13,30,5.00
2017,02,28,13,31,5.00
2017,02,28,13,32,5.00
2017,02,28,13,33,4.90
2017,02,28,13,34,5.00
2017,02,28,13,35,4.90
2017,02,28,13,36,4.90
2017,02,28,13,37,4.80
2017,02,28,13,38,4.80
2017,02,28,13,39,4.80
2017,02,28,13,40,4.80
2017,02,28,13,41,4.80
2017,02,28,13,42,4.80
2017,02,28,13,43,4.70
2017,02,28,13,44,4.70
2017,02,28,13,45,4.70
2017,02,28,13,46,4.70
2017,02,28,13,47,4.70
2017,02,28,13,48,4.70
2017,02,28,13,49,4.70
2017,02,28,13,50,4.70
2017,02,28,13,51,4.70
2017,02,28,13,52,4.70
2017,02,28,13,53,4.70
2017,02,28,13,54,4.70
2017,02,28,13,55,4.70
2017,02,28,13,56,4.70
2017,02,28,13,57,4.70
2017,02,28,13,58,4.70
2017,02,28,13,59,4.80
2017,02,28,14,00,4.80
2017,02,28,14,01,4.80
2017,02,28,14,02,4.80
2017,02,28,14,03,4.80
2017,02,28,14,04,4.80
2017,02,28,14,05,4.80
2017,02,28,14,06,4.80
2017,02,28,14,07,4.80
2017,02,28,14,08,4.90
2017,02,28,14,09,4.90
2017,02,28,14,10,4.90
2017,02,28,14,11,4.90
2017,02,28,14,12,4.90
2017,02,28,14,13,5.00
2017,02,28,14,14,5.10
2017,02,28,14,15,5.20
2017,02,28,14,16,5.20
2017,02,28,14,17,5.30
2017,02,28,14,18,5.30
2017,02,28,14,19,5.30
2017,02,28,14,20,5.30
2017,02,28,14,21,5.30
2017,02,28,14,22,5.30
2017,02,28,14,23,5.20
2017,02,28,14,24,5.20
2017,02,28,14,25,5.20
2017,02,28,14,26,5.20
2017,02,28,14,27,5.20
2017,02,28,14,28,5.20
2017,02,28,14,29,5.20
2017,02,28,14,30,5.20
2017,02,28,14,31,5.20
2017,02,28,14,32,5.20
2017,02,28,14,33,5.20
2017,02,28,14,34,5.30
2017,02,28,14,35,5.30
2017,02,28,14,36,5.30
2017,02,28,14,37,5.30
2017,02,28,14,38,5.30
2017,02,28,14,39,5.30
2017,02,28,14,40,5.30
2017,02,28,14,41,5.30
2017,02,28,14,42,5.30
2017,02,28,14,43,5.30
2017,02,28,14,44,5.30
2017,02,28,14,45,5.30
2017,02,28,14,46,5.30
2017,02,28,14,47,5.30
2017,02,28,14,48,5.30
2017,02,28,14,49,5.30
2017,02,28,14,50,5.30
2017,02,28,14,51,5.30
2017,02,28,14,52,5.30
2017,02,28,14,53,5.30
2017,02,28,14,54,5.30
2017,02,28,14,55,5.30
2017,02,28,14,56,5.30
2017,02,28,14,57,5.30
2017,02,28,14,58,5.40
2017,02,28,14,59,5.40
2017,02,28,15,00,5.40
2017,02,28,15,01,5.40
2017,02,28,15,02,5.40
2017,02,28,15,03,5.40
2017,02,28,15,04,5.40
2017,02,28,15,05,5.40
2017,02,28,15,06,5.40
2017,02,28,15,07,5.50
2017,02,28,15,08,5.50
2017,02,28,15,09,5.50
2017,02,28,15,10,5.50
2017,02,28,15,11,5.50
2017,02,28,15,12,5.50
2017,02,28,15,13,5.50
2017,02,28,15,14,5.50
2017,02,28,15,15,5.50
2017,02,28,15,16,5.50
2017,02,28,15,17,5.40
2017,02,28,15,18,5.40
2017,02,28,15,19,5.40
2017,02,28,15,20,5.40
2017,02,28,15,21,5.40
2017,02,28,15,22,5.40
2017,02,28,15,23,5.40
2017,02,28,15,24,5.40
2017,02,28,15,25,5.40
2017,02,28,15,26,5.40
2017,02,28,15,27,5.50
2017,02,28,15,28,5.50
2017,02,28,15,29,5.50
2017,02,28,15,30,5.50
2017,02,28,15,31,5.50
2017,02,28,15,32,5.50
2017,02,28,15,33,5.50
2017,02,28,15,34,5.60
2017,02,28,15,35,5.60
2017,02,28,15,36,5.60
2017,02,28,15,37,5.60
2017,02,28,15,38,5.60
2017,02,28,15,39,5.60
2017,02,28,15,40,5.60
2017,02,28,15,41,5.60
2017,02,28,15,42,5.60
2017,02,28,15,43,5.60
2017,02,28,15,44,5.70
2017,02,28,15,45,5.70
2017,02,28,15,46,5.70
2017,02,28,15,47,5.70
2017,02,28,15,48,5.70
2017,02,28,15,49,5.70
2017,02,28,15,50,5.70
2017,02,28,15,51,5.70
2017,02,28,15,52,5.70
2017,02,28,15,53,5.70
2017,02,28,15,54,5.70
2017,02,28,15,55,5.70
2017,02,28,15,56,5.70
2017,02,28,15,57,5.70
2017,02,28,15,58,5.60
2017,02,28,15,59,5.60
2017,02,28,16,00,5.60
2017,02,28,16,01,5.60
2017,02,28,16,02,5.60
2017,02,28,16,03,5.60
2017,02,28,16,04,5.60
2017,02,28,16,05,5.60
2017,02,28,16,06,5.60
2017,02,28,16,07,5.60
2017,02,28,16,08,5.60
2017,02,28,16,09,5.60
2017,02,28,16,10,5.60
2017,02,28,16,11,5.60
2017,02,28,16,12,5.60
2017,02,28,16,13,5.60
2017,02,28,16,14,5.60
2017,02,28,16,15,5.60
2017,02,28,16,16,5.60
2017,02,28,16,17,5.60
2017,02,28,16,18,5.60
2017,02,28,16,19,5.60
2017,02,28,16,20,5.60
2017,02,28,16,21,5.60
2017,02,28,16,22,5.60
2017,02,28,16,23,5.60
2017,02,28,16,24,5.60
2017,02,28,16,25,5.60
2017,02,28,16,26,5.60
2017,02,28,16,27,5.60
2017,02,28,16,28,5.60
2017,02,28,16,29,5.60
2017,02,28,16,30,5.60
2017,02,28,16,31,5.60
2017,02,28,16,32,5.60
2017,02,28,16,33,5.60
2017,02,28,16,34,5.60
2017,02,28,16,35,5.60
2017,02,28,16,36,5.60
2017,02,28,16,37,5.60
2017,02,28,16,38,5.60
2017,02,28,16,39,5.60
2017,02,28,16,40,5.60
2017,02,28,16,41,5.60
2017,02,28,16,42,5.60
2017,02,28,16,43,5.60
2017,02,28,16,44,5.60
2017,02,28,16,45,5.60
2017,02,28,16,46,5.60
2017,02,28,16,47,5.60
2017,02,28,16,48,5.70
2017,02,28,16,49,5.70
2017,02,28,16,50,5.70
2017,02,28,16,51,5.70
2017,02,28,16,52,5.70
2017,02,28,16,53,5.70
2017,02,28,16,54,5.70
2017,02,28,16,55,5.70
2017,02,28,16,56,5.70
2017,02,28,16,57,5.70
2017,02,28,16,58,5.70
2017,02,28,16,59,5.70
2017,02,28,17,00,5.70
2017,02,28,17,01,5.70
2017,02,28,17,02,5.70
2017,02,28,17,03,5.70
2017,02,28,17,04,5.70
2017,02,28,17,05,5.70
2017,02,28,17,06,5.70
2017,02,28,17,07,5.70
2017,02,28,17,08,5.70
2017,02,28,17,09,5.80
2017,02,28,17,10,5.80
2017,02,28,17,11,5.80
2017,02,28,17,12,5.80
2017,02,28,17,13,5.80
2017,02,28,17,14,5.80
2017,02,28,17,15,5.80
2017,02,28,17,16,5.80
2017,02,28,17,17,5.80
2017,02,28,17,18,5.80
2017,02,28,17,19,5.80
2017,02,28,17,20,5.70
2017,02,28,17,21,5.70
2017,02,28,17,22,5.70
2017,02,28,17,23,5.70
2017,02,28,17,24,5.70
2017,02,28,17,25,5.70
2017,02,28,17,26,5.70
2017,02,28,17,27,5.70
2017,02,28,17,28,5.70
2017,02,28,17,29,5.70
2017,02,28,17,30,5.70
2017,02,28,17,31,5.70
2017,02,28,17,32,5.70
2017,02,28,17,33,5.60
2017,02,28,17,34,5.70
2017,02,28,17,35,5.60
2017,02,28,17,36,5.60
2017,02,28,17,37,5.60
2017,02,28,17,38,5.60
2017,02,28,17,39,5.60
2017,02,28,17,40,5.60
2017,02,28,17,41,5.60
2017,02,28,17,42,5.60
2017,02,28,17,43,5.60
2017,02,28,17,44,5.60
2017,02,28,17,45,5.60
2017,02,28,17,46,5.60
2017,02,28,17,47,5.60
2017,02,28,17,48,5.60
2017,02,28,17,49,5.50
2017,02,28,17,50,5.60
2017,02,28,17,51,5.50
2017,02,28,17,52,5.50
2017,02,28,17,53,5.50
2017,02,28,17,54,5.50
2017,02,28,17,55,5.50
2017,02,28,17,56,5.50
2017,02,28,17,57,5.50
2017,02,28,17,58,5.40
2017,02,28,17,59,5.40
2017,02,28,18,00,5.40
2017,02,28,18,01,5.40
2017,02,28,18,02,5.40
2017,02,28,18,03,5.40
2017,02,28,18,04,5.40
2017,02,28,18,05,5.40
2017,02,28,18,06,5.50
2017,02,28,18,07,5.40
2017,02,28,18,08,5.50
2017,02,28,18,09,5.50
2017,02,28,18,10,5.50
2017,02,28,18,11,5.50
2017,02,28,18,12,5.50
2017,02,28,18,13,5.50
2017,02,28,18,14,5.50
2017,02,28,18,15,5.50
2017,02,28,18,16,5.50
2017,02,28,18,17,5.60
2017,02,28,18,18,5.60
2017,02,28,18,19,5.60
2017,02,28,18,20,5.60
2017,02,28,18,21,5.60
2017,02,28,18,22,5.60
2017,02,28,18,23,5.50
2017,02,28,18,24,5.50
2017,02,28,18,25,5.50
2017,02,28,18,26,5.50
2017,02,28,18,27,5.50
2017,02,28,18,28,5.50
2017,02,28,18,29,5.40
2017,02,28,18,30,5.40
2017,02,28,18,31,5.40
2017,02,28,18,32,5.30
2017,02,28,18,33,5.30
2017,02,28,18,34,5.30
2017,02,28,18,35,5.30
2017,02,28,18,36,5.30
2017,02,28,18,37,5.30
2017,02,28,18,38,5.20
2017,02,28,18,39,5.20
2017,02,28,18,40,5.20
2017,02,28,18,41,5.20
2017,02,28,18,42,5.10
2017,02,28,18,43,5.10
2017,02,28,18,44,5.10
2017,02,28,18,45,5.10
2017,02,28,18,46,5.10
2017,02,28,18,47,5.10
2017,02,28,18,48,5.00
2017,02,28,18,49,5.00
2017,02,28,18,50,5.00
2017,02,28,18,51,5.00
2017,02,28,18,52,4.90
2017,02,28,18,53,4.90
2017,02,28,18,54,4.90
2017,02,28,18,55,4.90
2017,02,28,18,56,4.80
2017,02,28,18,57,4.80
2017,02,28,18,58,4.80
2017,02,28,18,59,4.80
2017,02,28,19,00,4.80
2017,02,28,19,01,4.80
2017,02,28,19,02,4.80
2017,02,28,19,03,4.80
2017,02,28,19,04,4.80
2017,02,28,19,05,4.80
2017,02,28,19,06,4.70
2017,02,28,19,07,4.80
2017,02,28,19,08,4.80
2017,02,28,19,09,4.70
2017,02,28,19,10,4.80
2017,02,28,19,11,4.80
2017,02,28,19,12,4.80
2017,02,28,19,13,4.80
2017,02,28,19,14,4.80
2017,02,28,19,15,4.80
2017,02,28,19,16,4.70
2017,02,28,19,17,4.70
2017,02,28,19,18,4.70
2017,02,28,19,19,4.70
2017,02,28,19,20,4.70
2017,02,28,19,21,4.70
2017,02,28,19,22,4.70
2017,02,28,19,23,4.70
2017,02,28,19,24,4.70
2017,02,28,19,25,4.70
2017,02,28,19,26,4.70
2017,02,28,19,27,4.70
2017,02,28,19,28,4.70
2017,02,28,19,29,4.70
2017,02,28,19,30,4.70
2017,02,28,19,31,4.70
2017,02,28,19,32,4.70
2017,02,28,19,33,4.70
2017,02,28,19,34,4.70
2017,02,28,19,35,4.70
2017,02,28,19,36,4.70
2017,02,28,19,37,4.70
2017,02,28,19,38,4.70
2017,02,28,19,39,4.70
2017,02,28,19,40,4.70
2017,02,28,19,41,4.70
2017,02,28,19,42,4.70
2017,02,28,19,43,4.70
2017,02,28,19,44,4.70
2017,02,28,19,45,4.70
2017,02,28,19,46,4.70
2017,02,28,19,47,4.70
2017,02,28,19,48,4.70
2017,02,28,19,49,4.70
2017,02,28,19,50,4.70
2017,02,28,19,51,4.70
2017,02,28,19,52,4.70
2017,02,28,19,53,4.70
2017,02,28,19,54,4.70
2017,02,28,19,55,4.70
2017,02,28,19,56,4.60
2017,02,28,19,57,4.70
2017,02,28,19,58,4.60
2017,02,28,19,59,4.60
2017,02,28,20,00,4.60
2017,02,28,20,01,4.60
2017,02,28,20,02,4.60
2017,02,28,20,03,4.60
2017,02,28,20,04,4.60
2017,02,28,20,05,4.60
2017,02,28,20,06,4.60
2017,02,28,20,07,4.60
2017,02,28,20,08,4.60
2017,02,28,20,09,4.60
2017,02,28,20,10,4.60
2017,02,28,20,11,4.60
2017,02,28,20,12,4.60
2017,02,28,20,13,4.60
2017,02,28,20,14,4.60
2017,02,28,20,15,4.60
2017,02,28,20,16,4.60
2017,02,28,20,17,4.50
2017,02,28,20,18,4.50
2017,02,28,20,19,4.50
2017,02,28,20,20,4.50
2017,02,28,20,21,4.50
2017,02,28,20,22,4.50
2017,02,28,20,23,4.50
2017,02,28,20,24,4.50
2017,02,28,20,25,4.40
2017,02,28,20,26,4.40
2017,02,28,20,27,4.40
2017,02,28,20,28,4.40
2017,02,28,20,29,4.40
2017,02,28,20,30,4.40
2017,02,28,20,31,4.40
2017,02,28,20,32,4.40
2017,02,28,20,33,4.40
2017,02,28,20,34,4.40
2017,02,28,20,35,4.40
2017,02,28,20,36,4.40
2017,02,28,20,37,4.40
2017,02,28,20,38,4.40
2017,02,28,20,39,4.40
2017,02,28,20,40,4.40
2017,02,28,20,41,4.40
2017,02,28,20,42,4.40
2017,02,28,20,43,4.40
2017,02,28,20,44,4.40
2017,02,28,20,45,4.40
2017,02,28,20,46,4.40
2017,02,28,20,47,4.40
2017,02,28,20,48,4.30
2017,02,28,20,49,4.30
2017,02,28,20,50,4.30
2017,02,28,20,51,4.30
2017,02,28,20,52,4.30
2017,02,28,20,53,4.30
2017,02,28,20,54,4.30
2017,02,28,20,55,4.30
2017,02,28,20,56,4.30
2017,02,28,20,57,4.30
2017,02,28,20,58,4.20
2017,02,28,20,59,4.20
2017,02,28,21,00,4.20
2017,02,28,21,01,4.20
2017,02,28,21,02,4.20
2017,02,28,21,03,4.20
2017,02,28,21,04,4.20
2017,02,28,21,05,4.20
2017,02,28,21,06,4.20
2017,02,28,21,07,4.20
2017,02,28,21,08,4.20
2017,02,28,21,09,4.20
2017,02,28,21,10,4.20
2017,02,28,21,11,4.20
2017,02,28,21,12,4.20
2017,02,28,21,13,4.20
2017,02,28,21,14,4.20
2017,02,28,21,15,4.20
2017,02,28,21,16,4.20
2017,02,28,21,17,4.20
2017,02,28,21,18,4.20
2017,02,28,21,19,4.20
2017,02,28,21,20,4.20
2017,02,28,21,21,4.20
2017,02,28,21,22,4.20
2017,02,28,21,23,4.20
2017,02,28,21,24,4.20
2017,02,28,21,25,4.20
2017,02,28,21,26,4.20
2017,02,28,21,27,4.20
2017,02,28,21,28,4.20
2017,02,28,21,29,4.20